Location: Borowce
(50.8255°N, 19.6209°E)
Time: 07:41:29
(UTC+00:00)

Cosmos 220 Rocket - Pass Details

Date: 19 May 2025
Orbit: 546 x 580 km, 74.0° (Epoch: 16 June)

Event Time Altitude Azimuth Distance (km) Brightness Sun altitude
Exits shadow 20:21:40 21° 159° (SSE) 1,275 5.1 -13.1°
Maximum altitude 20:23:48 36° 106° (ESE) 880 4.5 -13.3°
Drops below altitude 10° 20:27:33 10° 39° (NE) 1,832 6.7 -13.6°
Sets 20:29:51 0° 31° (NNE) 2,728 7.8 -13.8°
